Simultaneous Nadir Overpasses (SNOs) Predictions

Prediction of SNOs between AQUA and METOP-C Satellite Orbit:

Table of predicted SNOs for the next 14.0 days since TLE Epoch: 10/2/2021
Index Date (AQUA) Time (AQUA) Lat,Lon (AQUA) SZA (AQUA ) Date (METOP-C) Time (METOP-C) Lat,Lon (METOP-C) SZA (METOP-C ) Distance(km) Time Diff (sec)
1 10/03/2021 13:02:31 73.72, -21.20 77.83 10/03/2021 13:02:06 73.73, -21.30 77.84 3.25 25
2 10/03/2021 13:51:59 -73.83, 146.20 102.05 10/03/2021 13:52:47 -73.81, 146.21 102.08 3.03 48
3 10/06/2021 07:47:10 -73.25,-121.40 101.59 10/06/2021 07:46:02 -73.20,-123.45 101.62 65.99 68
4 10/06/2021 08:36:47 73.76, 45.15 78.95 10/06/2021 08:36:30 73.74, 45.13 78.93 3.09 17
5 10/06/2021 09:26:13 -73.82,-147.33 100.98 10/06/2021 09:27:10 -73.82,-147.34 100.98 0.60 57
6 10/09/2021 03:21:31 -73.62, -55.73 100.15 10/09/2021 03:20:18 -73.56, -56.22 100.19 16.85 73
7 10/09/2021 04:11:01 73.77, 111.59 80.02 10/09/2021 04:10:53 73.74, 111.55 80.00 2.84 8
8 10/09/2021 05:00:28 -73.82, -80.89 99.91 10/09/2021 05:01:34 -73.84, -80.91 99.90 1.94 66
9 10/11/2021 22:55:48 -73.73, 10.46 98.97 10/11/2021 22:54:39 -73.72, 10.55 98.98 3.52 69
10 10/11/2021 23:45:16 73.78, 177.99 81.10 10/11/2021 23:45:16 73.79, 178.08 81.12 3.08 0
11 10/12/2021 00:34:44 -73.89, -14.60 98.78 10/12/2021 00:35:57 -73.90, -14.36 98.78 7.44 73
12 10/14/2021 18:30:02 -73.71, 76.96 97.94 10/14/2021 18:29:03 -73.72, 76.97 97.93 1.32 59
13 10/14/2021 19:19:30 73.76,-115.51 82.13 10/14/2021 19:19:40 73.79,-115.51 82.16 3.96 10



Historial Predications of SNOs between AQUA and METOP-C
